McComb, MS

12:32 AM CDT on May 29, 2017 (GMT -0500)
McComb-Pike County-Lewis

Weather History for KMCB - October, 2010

Change the Weather History Date:

Saturday, October 30, 2010

  Actual Average Record
Temperature  
Mean Temperature 56 °F -  
Max Temperature 77 °F 76 °F 88 °F (1951)
Min Temperature 37 °F 51 °F 33 °F (1952)
Degree Days  
Heating Degree Days 9    
Growing Degree Days 6 (Base 50)    
Moisture  
Dew Point 37 °F    
Average Humidity 58    
Maximum Humidity 93    
Minimum Humidity 20    
Precipitation  
Precipitation 0.00 in - - ()
Sea Level Pressure  
Sea Level Pressure 30.13 in    
Wind  
Wind Speed 2 mph (South)    
Max Wind Speed 7 mph    
Max Gust Speed -    
Visibility 10 miles    
Events      
Averages and records for this station are not official NWS values.
T = Trace of Precipitation, MM = Missing Value Source: NWS Daily Summary

Daily Weather History Graph

Daily Weather History Graph

Search for Another Location

Airport or City:

Trip Planner

Search our weather history database for the weather conditions in past years. The results will help you decide how hot, cold, wet, or windy it might be!

Date:

Astronomy

Oct. 30, 2010 Rise Set
Actual Time 7:15 AM CDT 6:14 PM CDT
Civil Twilight 6:50 AM CDT 6:39 PM CDT
Nautical Twilight 6:22 AM CDT 7:08 PM CDT
Astronomical Twilight 5:53 AM CDT 7:36 PM CDT
Moon 12:02 AM CDT (10/30) 1:50 PM CDT (10/30)
Length of Visible Light 11h 48m
Length of Day
10h 59m
Waning Gibbous, 48% of the Moon is Illuminated
Oct 30
Waning Gibbous
Nov 5
New
Nov 13
First Quarter
Nov 21
Full
Nov 28
Last Quarter

Hourly Weather History & Observations

Time (CDT) Temp. Dew Point Humidity Pressure Visibility Wind Dir Wind Speed Gust Speed Precip Events Conditions
12:53 AM 50.0 °F 36.0 °F 59% 30.19 in 10.0 mi North 4.6 mph - N/A   Clear
1:53 AM 43.0 °F 37.0 °F 80% 30.19 in 10.0 mi Calm Calm - N/A   Clear
2:53 AM 39.9 °F 35.1 °F 83% 30.19 in 10.0 mi Calm Calm - N/A   Clear
3:53 AM 39.0 °F 36.0 °F 89% 30.18 in 10.0 mi Calm Calm - N/A   Clear
4:53 AM 37.9 °F 35.1 °F 89% 30.18 in 10.0 mi Calm Calm - N/A   Clear
5:53 AM 37.0 °F 35.1 °F 93% 30.18 in 10.0 mi Calm Calm - N/A   Clear
6:53 AM 37.0 °F 35.1 °F 93% 30.19 in 10.0 mi Calm Calm - N/A   Clear
7:53 AM 39.0 °F 36.0 °F 89% 30.20 in 10.0 mi Calm Calm - N/A   Clear
8:53 AM 50.0 °F 37.9 °F 63% 30.21 in 10.0 mi ENE 4.6 mph - N/A   Clear
9:53 AM 57.0 °F 37.9 °F 49% 30.21 in 10.0 mi ESE 3.5 mph - N/A   Clear
10:53 AM 63.0 °F 39.0 °F 41% 30.20 in 10.0 mi Calm Calm - N/A   Clear
11:53 AM 68.0 °F 34.0 °F 28% 30.18 in 10.0 mi SSW 4.6 mph - N/A   Clear
12:53 PM 72.0 °F 32.0 °F 23% 30.15 in 10.0 mi WNW 6.9 mph - N/A   Clear
1:53 PM 73.9 °F 32.0 °F 21% 30.11 in 10.0 mi South 5.8 mph - N/A   Clear
2:53 PM 75.9 °F 33.1 °F 21% 30.09 in 10.0 mi Calm Calm - N/A   Clear
3:53 PM 75.0 °F 30.9 °F 20% 30.07 in 10.0 mi SW 3.5 mph - N/A   Clear
4:53 PM 75.0 °F 33.1 °F 22% 30.06 in 10.0 mi SSW 5.8 mph - N/A   Clear
5:53 PM 69.1 °F 36.0 °F 30% 30.05 in 10.0 mi SSE 3.5 mph - N/A   Clear
6:53 PM 62.1 °F 39.9 °F 44% 30.05 in 10.0 mi Calm Calm - N/A   Clear
7:53 PM 55.9 °F 42.1 °F 60% 30.07 in 10.0 mi Calm Calm - N/A   Clear
8:53 PM 53.1 °F 41.0 °F 64% 30.06 in 10.0 mi Calm Calm - N/A   Clear
9:53 PM 51.1 °F 41.0 °F 68% 30.07 in 10.0 mi Calm Calm - N/A   Clear
10:53 PM 50.0 °F 42.1 °F 74% 30.07 in 10.0 mi Calm Calm - N/A   Clear
11:53 PM 48.9 °F 43.0 °F 80% 30.06 in 10.0 mi Calm Calm - N/A   Clear